| time (UTC) | temp C | wind direction | speed KPH | gust KPH | rain 1hr cm | rain 24hr cm | rain mn cm | humidity % | barometer mb |
| 20260503223036 | 26 | 35 | 1.6 | 12.9 | 0.00 | 0.00 | 0.00 | 32 | 1009.4 |
| 20260503221535 | 26 | 291 | 4.8 | 12.9 | 0.00 | 0.00 | 0.00 | 30 | 1009.5 |
| 20260503220034 | 26 | 28 | 3.2 | 9.7 | 0.00 | 0.00 | 0.00 | 35 | 1009.6 |
| 20260503214530 | 26 | 130 | 4.8 | 12.9 | 0.00 | 0.00 | 0.00 | 36 | 1009.6 |
| 20260503213032 | 26 | 240 | 3.2 | 12.9 | 0.00 | 0.00 | 0.00 | 32 | 1009.8 |
| 20260503211531 | 26 | 223 | 3.2 | 11.3 | 0.00 | 0.00 | 0.00 | 34 | 1009.9 |
| 20260503210031 | 25 | 89 | 3.2 | 16.1 | 0.00 | 0.00 | 0.00 | 37 | 1010.1 |
| 20260503204534 | 25 | 142 | 3.2 | 16.1 | 0.00 | 0.00 | 0.00 | 35 | 1010.4 |
| 20260503203035 | 25 | 145 | 6.4 | 17.7 | 0.00 | 0.00 | 0.00 | 37 | 1010.5 |
| 20260503201535 | 25 | 269 | 4.8 | 12.9 | 0.00 | 0.00 | 0.00 | 41 | 1010.7 |
| 20260503200032 | 25 | 89 | 4.8 | 11.3 | 0.00 | 0.00 | 0.00 | 38 | 1010.9 |
| 20260503194534 | 24 | 223 | 4.8 | 12.9 | 0.00 | 0.00 | 0.00 | 37 | 1011.0 |
| 20260503193043 | 24 | 110 | 1.6 | 11.3 | 0.00 | 0.00 | 0.00 | 40 | 1011.1 |
| 20260503191536 | 24 | 98 | 3.2 | 12.9 | 0.00 | 0.00 | 0.00 | 42 | 1011.4 |
| 20260503190033 | 23 | 46 | 3.2 | 9.7 | 0.00 | 0.00 | 0.00 | 41 | 1011.7 |
| 20260503184534 | 23 | 264 | 1.6 | 11.3 | 0.00 | 0.00 | 0.00 | 43 | 1011.7 |
| 20260503183031 | 23 | 296 | 4.8 | 12.9 | 0.00 | 0.00 | 0.00 | 45 | 1012.0 |
| 20260503181535 | 22 | 129 | 4.8 | 12.9 | 0.00 | 0.00 | 0.00 | 43 | 1012.0 |
| 20260503180032 | 22 | 131 | 3.2 | 14.5 | 0.00 | 0.00 | 0.00 | 50 | 1012.1 |
| 20260503174536 | 22 | 121 | 1.6 | 11.3 | 0.00 | 0.00 | 0.00 | 46 | 1012.0 |
| 20260503173032 | 21 | 135 | 1.6 | 11.3 | 0.00 | 0.00 | 0.00 | 50 | 1012.2 |
| 20260503171532 | 21 | 331 | 1.6 | 9.7 | 0.00 | 0.00 | 0.00 | 52 | 1012.2 |
| 20260503081533 | 11 | 0 | 0.0 | 1.6 | 0.00 | 0.00 | 0.00 | 78 | 1012.8 |
| 20260503080210 | 11 | 1 | 0.0 | 1.6 | 0.00 | 0.00 | 0.00 | 78 | 1012.7 |
| 20260503071535 | 12 | 269 | 0.0 | 1.6 | 0.00 | 0.00 | 0.00 | 73 | 1012.8 |
| 20260503054537 | 14 | 0 | 0.0 | 1.6 | 0.00 | 0.00 | 0.00 | 66 | 1012.8 |
| 20260503053028 | 15 | 0 | 0.0 | 1.6 | 0.00 | 0.00 | 0.00 | 63 | 1012.8 |
| 20260503051531 | 15 | 152 | 0.0 | 1.6 | 0.00 | 0.00 | 0.00 | 62 | 1012.8 |
| 20260503050033 | 16 | 0 | 0.0 | 1.6 | 0.00 | 0.00 | 0.00 | 59 | 1012.7 |
| 20260503044536 | 16 | 0 | 0.0 | 3.2 | 0.00 | 0.00 | 0.00 | 57 | 1012.6 |
| 20260503043029 | 17 | 0 | 0.0 | 3.2 | 0.00 | 0.00 | 0.00 | 55 | 1012.4 |
| 20260503041530 | 17 | 46 | 0.0 | 3.2 | 0.00 | 0.00 | 0.00 | 53 | 1012.1 |
| 20260503040030 | 18 | 0 | 0.0 | 9.7 | 0.00 | 0.00 | 0.00 | 52 | 1011.9 |
| 20260503034530 | 18 | 0 | 0.0 | 6.4 | 0.00 | 0.00 | 0.00 | 52 | 1011.7 |
| 20260503033033 | 19 | 117 | 1.6 | 4.8 | 0.00 | 0.00 | 0.00 | 54 | 1011.6 |
| 20260503031532 | 20 | 0 | 1.6 | 6.4 | 0.00 | 0.00 | 0.00 | 53 | 1011.5 |
| 20260503030030 | 20 | 231 | 1.6 | 6.4 | 0.00 | 0.00 | 0.00 | 49 | 1011.2 |
| 20260503024528 | 22 | 0 | 1.6 | 4.8 | 0.00 | 0.00 | 0.00 | 44 | 1011.1 |
| 20260503023027 | 22 | 269 | 1.6 | 11.3 | 0.00 | 0.00 | 0.00 | 38 | 1011.0 |
| 20260503021532 | 23 | 269 | 1.6 | 8.0 | 0.00 | 0.00 | 0.00 | 39 | 1010.9 |
| 20260503020032 | 24 | 213 | 0.0 | 3.2 | 0.00 | 0.00 | 0.00 | 40 | 1010.9 |
| 20260503014532 | 23 | 46 | 1.6 | 11.3 | 0.00 | 0.00 | 0.00 | 36 | 1010.9 |
| 20260503013038 | 23 | 89 | 3.2 | 8.0 | 0.00 | 0.00 | 0.00 | 36 | 1011.1 |
| 20260503011535 | 23 | 113 | 3.2 | 12.9 | 0.00 | 0.00 | 0.00 | 40 | 1011.2 |
| 20260503010035 | 23 | 223 | 3.2 | 11.3 | 0.00 | 0.00 | 0.00 | 39 | 1011.1 |
| 20260503004532 | 23 | 193 | 3.2 | 14.5 | 0.00 | 0.00 | 0.00 | 42 | 1011.1 |
| 20260503003032 | 23 | 245 | 3.2 | 14.5 | 0.00 | 0.00 | 0.00 | 40 | 1011.3 |
| 20260503001529 | 23 | 0 | 3.2 | 12.9 | 0.00 | 0.00 | 0.00 | 40 | 1011.3 |
| 20260503000029 | 22 | 127 | 1.6 | 9.7 | 0.00 | 0.00 | 0.00 | 42 | 1011.3 |
| 20260502234530 | 22 | 178 | 3.2 | 19.3 | 0.00 | 0.00 | 0.00 | 43 | 1011.6 |
| 20260502233032 | 21 | 139 | 3.2 | 9.7 | 0.00 | 0.00 | 0.00 | 45 | 1011.8 |
| 20260502231532 | 21 | 117 | 1.6 | 9.7 | 0.00 | 0.00 | 0.00 | 47 | 1012.3 |
| 20260502230031 | 21 | 131 | 1.6 | 9.7 | 0.00 | 0.00 | 0.00 | 47 | 1012.1 |
| 20260502224529 | 21 | 108 | 1.6 | 8.0 | 0.00 | 0.00 | 0.00 | 46 | 1012.4 |